Location: Conflandey
(47.7287°N, 6.0456°E)
Time: 02:00:03
(UTC+00:00)

CZ-4 R/B - Pass Details

Date: 24 October 2021
Orbit: 531 x 595 km, 97.8° (Epoch: 28 November)

Event Time Altitude Azimuth Distance (km) Brightness Sun altitude
Exits shadow 18:01:08 - 156° (SSE) 2,578 4.5 -15.8°
Reaches altitude 10° 18:02:51 10° 153° (SSE) 1,860 3.8 -16.0°
Maximum altitude 18:06:50 62° 73° (ENE) 651 1.3 -16.7°
Drops below altitude 10° 18:10:56 10° 353° (N) 1,911 4.2 -17.4°
Sets 18:13:08 0° 350° (N) 2,825 5.1 -17.8°
